[[{"header":{"parameterUnit":"m.s-1","parameterCategory":1,"la1":30.2991,"la2":30.254,"lo1":-89.0895,"lo2":-89.0444,"dy":0.0017,"dx":0.0017,"nx":28,"ny":28,"refTime":"2024-05-30T09:00:00:Z","depth":0,"parameterNumber":2,"parameterNumberName":"U-component_of_WINDS"},"data":[0,0,0,0,0,0,0,0,0,0,0,0,0,0,0,0,0,0,0,0,0,0,0,0,0,0,0,0,0,0,0,0,0,0,0,0,0,0,0,0,0,0,0,0,0,0,0,0,0,0,0,0,0,0,0,0,0,0,-3.938,-3.9382,0,-3.9536,-3.9537,-3.9539,-3.9554,-3.9553,-3.9551,-3.9549,-3.9704,-3.971,-3.9715,0,0,0,0,0,0,0,0,0,0,0,0,0,-3.9091,-3.9096,-3.938,-3.9382,-3.9384,-3.9535,-3.9537,-3.954,-3.9554,-3.9552,-3.9551,-3.9549,-3.9703,-3.9709,-3.9716,0,0,0,0,0,0,0,0,0,0,0,0,0,-3.9229,-3.9098,-3.9379,-3.9409,-3.9414,-3.9535,-3.9538,-3.954,-3.9555,-3.9552,-3.955,-3.9548,-3.97,-3.9709,-3.9717,-3.9817,0,0,-3.9743,-3.9746,0,0,0,0,0,0,0,0,-3.9221,-3.9239,-3.9403,-3.9408,-3.9413,-3.9523,-3.9493,-3.9633,-3.9555,-3.9501,-3.9549,-3.9547,-3.9646,-3.9659,-3.9693,-3.9825,-3.9831,-3.9743,-3.9749,-3.9752,-3.9755,0,0,0,0,0,0,0,-3.9211,-3.9232,-3.9441,-3.9405,-3.9411,-3.9414,-3.9431,-3.9519,-3.9585,-3.9506,-3.9507,-3.9526,-3.9648,-3.9685,-3.9697,-3.9834,-3.9743,-3.9751,-3.9756,-3.9759,-4.0054,-4.0057,0,0,0,0,0,0,-3.9197,-3.9224,-3.9436,-3.9446,-3.9309,-3.9421,-3.944,-3.949,-3.9584,-3.9596,-3.9528,-3.9526,-3.9672,-3.9687,-3.9702,-3.9824,-3.9752,-3.976,-3.9765,-4.0052,-4.0055,-4.0058,0,0,0,0,0,0,-3.919,-3.9215,-3.943,-3.9336,-3.9363,-3.9429,-3.9485,-3.9494,-3.9531,-3.9601,-3.9612,-3.9553,-3.967,-3.969,-3.9789,-3.983,-3.9764,-3.9772,-4.0048,-4.0053,-4.0056,-4.007,0,0,0,0,0,0,-3.9182,-3.9213,-3.9253,-3.9337,-3.9368,-3.9515,-3.9487,-3.9499,-3.9546,-3.9545,-3.9628,-3.9639,-3.967,-3.9776,-3.9797,-3.984,-3.9778,-4.0045,-4.005,-4.0055,-4.0066,-4.0074,-4.0081,0,0,0,0,0,-3.9172,-3.925,-3.9255,-3.928,-3.9419,-3.9517,-3.9535,-3.957,-3.955,-3.9589,-3.9634,-3.9637,-3.9823,-3.9786,-3.981,-3.9856,-4.0042,-4.0049,-4.0055,-4.0063,-4.0073,-4.0081,0,0,0,0,0,0,-3.9167,-3.9261,-3.9268,-3.9376,-3.9439,-3.952,-3.9571,-3.958,-3.9649,-3.9645,-3.9684,-3.9703,-3.9799,-3.9838,-3.9795,-3.9958,-3.993,-3.9941,-3.9928,-3.9938,-3.9946,-3.9932,-3.9785,0,0,0,0,0,-3.9179,-3.9252,-3.933,-3.9418,-3.9449,-3.9505,-3.9549,-3.957,-3.9637,-3.9663,-3.9715,-3.9778,-3.985,-3.9897,-3.9968,-4.0073,-4.009,-4.0117,-4.0124,-4.013,-4.0138,-4.0195,-4.0207,-4.0078,-4.0078,-4.0078,0,0,-3.9204,-3.9264,-3.9308,-3.9418,-3.947,-3.9543,-3.9527,-3.9605,-3.9659,-3.9674,-3.977,-3.9811,-3.9883,-3.9985,-4.0033,-4.002,-4.0178,-4.0138,-4.0142,-4.0147,-4.0203,-4.0215,-4.0226,-4.0083,-4.0082,-4.0081,0,0,-3.9285,-3.934,-3.9417,-3.947,-3.9548,-3.9585,-3.9604,-3.9685,-3.9712,-3.981,-3.9822,-3.9887,-4.0012,-4.0063,-4.0105,-4.0207,-4.0211,-4.0229,-4.0266,-4.0321,-4.0332,-4.0341,-4.0374,-4.0386,-4.0238,-4.0238,-4.0238,0,-3.9305,-3.9417,-3.9456,-3.9534,-3.9581,-3.9601,-3.9679,-3.9728,-3.9825,-3.9856,-3.9842,-3.9999,-4.005,-4.0163,-4.0188,-4.0223,-4.0243,-4.0218,-4.0327,-4.0337,-4.0346,-4.0378,-4.0391,-4.0239,-4.0239,-4.0239,-4.0239,0,-3.9436,-3.9514,-3.9567,-3.9662,-3.9716,-3.9793,-3.9843,-3.9893,-3.9911,-3.9948,-4.0046,-4.0108,-4.0191,-4.0221,-4.0238,-4.0336,-4.0326,-4.032,-4.0292,-4.0359,-4.039,-4.0403,-4.0241,-4.0241,-4.024,-4.024,0,0,-3.9516,-3.9633,-3.9651,-3.9694,-3.9783,-3.9842,-3.9921,-4.0004,-4.0044,-4.0112,-4.0177,-4.0283,-4.0277,-4.0325,-4.0349,-4.0398,-4.0472,-4.0385,-4.0387,-4.0396,-4.0581,-4.0583,-4.0597,-4.0477,-4.048,-4.0482,-4.0574,0,-3.9605,-3.9746,-3.9784,-3.9902,-3.9973,-3.9994,-4.0062,-4.0123,-4.0161,-4.0226,-4.0267,-4.0341,-4.0329,-4.0358,-4.0408,-4.0452,-4.0509,-4.0447,-4.0535,-4.0538,-4.0512,-4.0613,-4.0616,-4.0699,-4.0586,-4.0589,-4.059,0,-3.9727,-3.9797,-3.9923,-4.0003,-4.0034,-4.0094,-4.0173,-4.0235,-4.0305,-4.0329,-4.0383,-4.0403,-4.0484,-4.0455,-4.0566,-4.0523,-4.0562,-4.0589,-4.0593,-4.06,-4.0565,-4.0619,-4.0727,-4.0738,-4.061,-4.0609,-4.0607,0,-3.9768,-3.9895,-3.9987,-4.0023,-4.0119,-4.016,-4.0202,-4.0269,-4.0317,-4.0385,-4.0416,-4.0493,-4.0534,-4.0593,-4.0632,-4.0608,-4.0739,-4.0714,-4.0759,-4.0758,-4.0782,-4.0779,-4.0894,-4.0813,-4.0813,-4.0813,-4.0813,0,-3.9862,-3.9937,-4.0006,-4.0062,-4.0147,-4.019,-4.0273,-4.0315,-4.0375,-4.0438,-4.0462,-4.052,-4.057,-4.0636,-4.0667,-4.0753,-4.0772,-4.0792,-4.0799,-4.0788,-4.0785,-4.0811,-4.0805,-4.0816,-4.0815,-4.0815,-4.0814,0,-3.9921,-3.9971,-4.0071,-4.0155,-4.0177,-4.0236,-4.0306,-4.036,-4.04,-4.048,-4.0501,-4.0562,-4.064,-4.0687,-4.0785,-4.0806,-4.09,-4.0906,-4.0876,-4.0879,-4.092,-4.0914,-4.1053,-4.1072,-4.0981,-4.0982,-4.0983,0,-3.9975,-4.0034,-4.0124,-4.0168,-4.0211,-4.0283,-4.0331,-4.0377,-4.0426,-4.051,-4.0554,-4.0634,-4.0699,-4.0823,-4.0875,-4.095,-4.0956,-4.1,-4.0967,-4.0954,-4.0953,-4.0947,-4.0952,-4.1004,-4.1004,-4.1005,-4.1006,0,-4.0066,-4.0088,-4.0157,-4.0236,-4.0294,-4.0358,-4.0421,-4.0456,-4.0512,-4.0566,-4.0647,-4.0698,-4.0799,-4.0877,-4.0957,-4.0998,-4.101,-4.1016,-4.103,-4.1018,-4.0997,-4.1006,-4.0887,-4.1012,-4.1011,-4.1011,-4.101,-4.101,-4.0122,-4.0175,-4.0246,-4.0323,-4.0376,-4.0435,-4.0489,-4.0537,-4.0605,-4.0691,-4.0714,-4.0798,-4.0866,-4.0975,-4.1018,-4.1083,-4.1076,-4.1097,-4.1101,-4.1105,-4.1104,-4.099,-4.1099,-4.1098,-4.1098,-4.1098,-4.1098,0,-4.0211,-4.0258,-4.0329,-4.0417,-4.0477,-4.0487,-4.0558,-4.0606,-4.068,-4.0744,-4.0809,-4.09,-4.0977,-4.1036,-4.1114,-4.1155,-4.1162,-4.1173,-4.1169,-4.1178,-4.1108,-4.1087,-4.1166,-4.1166,-4.1166,-4.1166,-4.1166,-4.1166,-4.0264,-4.0353,-4.0383,-4.0498,-4.0545,-4.0628,-4.0667,-4.0721,-4.0772,-4.0874,-4.0938,-4.0977,-4.1038,-4.1121,-4.119,-4.1206,-4.1232,-4.1241,-4.1257,-4.119,-4.1183,-4.1175,-4.1156,-4.1248,-4.1248,-4.1321,-4.1322,-4.1322]},{"header":{"parameterUnit":"m.s-1","parameterCategory":1,"la1":30.2991,"la2":30.254,"lo1":-89.0895,"lo2":-89.0444,"dy":0.0017,"dx":0.0017,"nx":28,"ny":28,"refTime":"2024-05-30T09:00:00:Z","depth":0,"parameterNumber":3,"parameterNumberName":"V-component_of_WINDS"},"data":[0,0,0,0,0,0,0,0,0,0,0,0,0,0,0,0,0,0,0,0,0,0,0,0,0,0,0,0,0,0,0,0,0,0,0,0,0,0,0,0,0,0,0,0,0,0,0,0,0,0,0,0,0,0,0,0,0,0,3.8202,3.8202,0,3.82,3.82,3.82,3.8091,3.8088,3.8085,3.8082,3.8078,3.8081,3.8083,0,0,0,0,0,0,0,0,0,0,0,0,0,3.8112,3.8114,3.8202,3.8202,3.8202,3.82,3.82,3.82,3.8091,3.8088,3.8084,3.8081,3.8078,3.8081,3.8084,0,0,0,0,0,0,0,0,0,0,0,0,0,3.8135,3.8115,3.8202,3.8148,3.8143,3.82,3.82,3.82,3.8092,3.8087,3.8083,3.8079,3.8077,3.808,3.8084,3.8193,0,0,3.8096,3.8097,0,0,0,0,0,0,0,0,3.8133,3.8138,3.8156,3.8152,3.8146,3.8141,3.8166,3.8197,3.8093,3.8111,3.8082,3.8077,3.8103,3.8104,3.8113,3.8192,3.8192,3.8096,3.8098,3.81,3.8101,0,0,0,0,0,0,0,3.8132,3.8137,3.8201,3.8156,3.815,3.8123,3.8122,3.8172,3.8131,3.8109,3.8101,3.8103,3.8099,3.8109,3.8112,3.8192,3.8096,3.8099,3.8102,3.8103,3.836,3.8364,0,0,0,0,0,0,3.8138,3.8137,3.8201,3.8201,3.8129,3.8128,3.8126,3.8147,3.813,3.8123,3.8106,3.8097,3.8105,3.8108,3.8111,3.8236,3.81,3.8104,3.8106,3.8355,3.8361,3.8365,0,0,0,0,0,0,3.8137,3.8145,3.8201,3.8167,3.8172,3.8134,3.8158,3.8149,3.8159,3.8128,3.812,3.8124,3.8102,3.8106,3.8173,3.8234,3.8105,3.8109,3.835,3.8357,3.8363,3.8487,0,0,0,0,0,0,3.8134,3.8145,3.8186,3.8169,3.8174,3.8264,3.8162,3.8152,3.8166,3.8155,3.8142,3.8136,3.8099,3.8168,3.8177,3.8237,3.8112,3.8344,3.8353,3.8361,3.8477,3.8497,3.8514,0,0,0,0,0,3.8132,3.8221,3.8189,3.8197,3.8225,3.8267,3.827,3.8226,3.8172,3.8212,3.8192,3.8137,3.8227,3.8176,3.8185,3.8247,3.834,3.835,3.836,3.8468,3.8493,3.8513,0,0,0,0,0,0,3.8246,3.8217,3.8181,3.8268,3.8271,3.8249,3.8298,3.8253,3.8271,3.826,3.8204,3.8202,3.8277,3.8269,3.8213,3.8351,3.8274,3.8286,3.8353,3.8376,3.8394,3.8393,3.8115,0,0,0,0,0,3.8281,3.8319,3.8292,3.8371,3.8374,3.8337,3.8353,3.8319,3.832,3.832,3.8305,3.8307,3.8336,3.8356,3.838,3.8476,3.8471,3.8524,3.8542,3.8557,3.8568,3.8617,3.8639,3.8399,3.8399,3.8399,0,0,3.8354,3.8343,3.837,3.8393,3.8391,3.8431,3.8338,3.8384,3.8412,3.8327,3.8388,3.8378,3.8377,3.8459,3.8494,3.8454,3.8634,3.857,3.8583,3.8585,3.863,3.8652,3.8673,3.8406,3.8404,3.8403,0,0,3.8506,3.8503,3.8568,3.8568,3.8567,3.8542,3.8558,3.8543,3.8532,3.8594,3.853,3.8563,3.8614,3.8616,3.8623,3.8778,3.8727,3.8788,3.8884,3.8932,3.8951,3.8967,3.902,3.904,3.8799,3.88,3.88,0,3.8597,3.8654,3.8606,3.8656,3.8668,3.8594,3.8658,3.8661,3.8668,3.8677,3.8633,3.8695,3.869,3.877,3.8808,3.8817,3.8832,3.8788,3.8952,3.8968,3.8983,3.9033,3.9053,3.8807,3.8806,3.8805,3.8805,0,3.8764,3.8805,3.8857,3.8866,3.8884,3.8941,3.8902,3.8925,3.889,3.887,3.8933,3.8924,3.8945,3.8962,3.8928,3.9038,3.9013,3.8962,3.8882,3.9013,3.9059,3.9078,3.8817,3.8815,3.8812,3.8811,0,0,3.8986,3.8969,3.8989,3.8991,3.8985,3.9015,3.9069,3.909,3.9111,3.9119,3.9162,3.9207,3.916,3.9169,3.9135,3.9177,3.9298,3.912,3.9119,3.9152,3.9417,3.9453,3.9476,3.9266,3.927,3.9272,3.9416,0,3.9131,3.9222,3.9181,3.9276,3.9312,3.9243,3.929,3.9291,3.9274,3.9302,3.9282,3.9315,3.9251,3.9255,3.9295,3.9275,3.935,3.9265,3.9303,3.9305,3.9303,3.9501,3.9539,3.9675,3.9434,3.9437,3.9439,0,3.9313,3.9328,3.9427,3.9414,3.9427,3.947,3.9486,3.9514,3.9514,3.9498,3.9509,3.9465,3.9517,3.9441,3.951,3.9453,3.9466,3.946,3.9464,3.9463,3.9378,3.9503,3.9718,3.9737,3.9467,3.9465,3.9463,0,3.9461,3.9508,3.9572,3.9577,3.9564,3.9595,3.9592,3.9588,3.9603,3.9617,3.9626,3.9647,3.9657,3.9674,3.9637,3.9585,3.9711,3.9632,3.9698,3.9699,3.9725,3.9723,3.9942,3.9739,3.9739,3.9738,3.9738,0,3.9627,3.9689,3.9638,3.9678,3.9745,3.9699,3.9767,3.9756,3.9753,3.9788,3.9731,3.9766,3.9716,3.9745,3.9717,3.9778,3.9784,3.9772,3.9763,3.9775,3.9776,3.9781,3.977,3.9744,3.9743,3.9742,3.9741,0,3.9803,3.9772,3.9837,3.982,3.9818,3.9868,3.9853,3.9889,3.9868,3.9914,3.9922,3.989,3.9922,3.9887,3.9917,3.9897,3.9979,3.9958,3.9979,3.9971,4.0039,4.0032,4.0266,4.0294,4.0076,4.0078,4.008,0,3.9909,3.9955,3.9944,3.9963,3.9963,3.9996,4.0011,3.9968,3.9986,3.999,4.0025,4.0053,4.0071,4.0126,4.0105,4.0127,4.0104,4.0185,4.0107,4.0118,4.0103,4.0099,4.0103,4.02,4.0202,4.0205,4.0206,0,4.0099,4.0082,4.0107,4.0126,4.0147,4.016,4.0169,4.0188,4.0143,4.0167,4.0199,4.0214,4.0244,4.0272,4.0288,4.0283,4.0237,4.0232,4.0247,4.0259,4.0269,4.0262,4.0019,4.0226,4.0224,4.0222,4.0221,4.022,4.0242,4.0279,4.0277,4.0306,4.0309,4.0319,4.0351,4.0335,4.0361,4.0382,4.0355,4.0395,4.0394,4.0411,4.0412,4.0442,4.0407,4.0431,4.0437,4.0443,4.0452,4.0267,4.0445,4.0445,4.0444,4.0444,4.0443,0,4.0427,4.0423,4.0451,4.0465,4.0488,4.0444,4.0452,4.0474,4.0509,4.0513,4.0533,4.057,4.0596,4.0578,4.0601,4.0628,4.0608,4.0635,4.0631,4.0631,4.0482,4.0465,4.0651,4.0651,4.0651,4.0651,4.0651,4.0651,4.0526,4.0587,4.057,4.0631,4.0626,4.0664,4.0672,4.0681,4.0683,4.0727,4.0749,4.0737,4.0732,4.0753,4.0776,4.077,4.0779,4.0815,4.0801,4.0662,4.0641,4.0622,4.0605,4.0818,4.0818,4.0946,4.0947,4.0948]}]]